Wallops Island, VA

12:34 AM EST on December 10, 2019 (GMT -0500)
Wallops Flight Facility

Weather History for KWAL - October, 2019

Change the Weather History Date:

Saturday, October 19, 2019

  Actual Average Record
Temperature  
Mean Temperature 54 °F 58 °F  
Max Temperature 66 °F 67 °F 84 °F (2016)
Min Temperature 42 °F 49 °F 34 °F (2015)
Degree Days  
Heating Degree Days 11    
Month to date heating degree days 58  
Since 1 July heating degree days 67  
Cooling Degree Days 0    
Month to date cooling degree days 53  
Year to date cooling degree days 1800  
Growing Degree Days 4 (Base 50)    
Moisture  
Dew Point 42 °F    
Average Humidity 64    
Maximum Humidity 83    
Minimum Humidity 44    
Precipitation  
Precipitation 0.00 in 0.10 in 1.33 in (2004)
Month to date precipitation 2.65 1.93  
Year to date precipitation 36.98 33.30  
Sea Level Pressure  
Sea Level Pressure 30.07 in    
Wind  
Wind Speed 5 mph (WNW)    
Max Wind Speed 16 mph    
Max Gust Speed 23 mph    
Visibility 10 miles    
Events      
T = Trace of Precipitation, MM = Missing Value Source: NWS Daily Summary

Daily Weather History Graph

Daily Weather History Graph

Search for Another Location

Airport or City:

Astronomy

Oct. 19, 2019 Rise Set
Actual Time 7:14 AM EDT 6:19 PM EDT
Civil Twilight 6:47 AM EDT 6:45 PM EDT
Nautical Twilight 6:16 AM EDT 7:16 PM EDT
Astronomical Twilight 5:46 AM EDT 7:46 PM EDT
Moon 10:29 PM EDT (10/19) 12:40 PM EDT (10/19)
Length of Visible Light 11h 58m
Length of Day
11h 05m
Waning Gibbous, 70% of the Moon is Illuminated
Oct 19
Waning Gibbous
Oct 21
Last Quarter
Oct 27
New
Nov 4
First Quarter
Nov 12
Full

Hourly Weather History & Observations

Time (EDT) Temp. Windchill Dew Point Humidity Pressure Visibility Wind Dir Wind Speed Gust Speed Precip Events Conditions
12:54 AM 48.0 °F - 41.0 °F 77% 30.03 in 10.0 mi NNW 6.9 mph - N/A   Clear
1:54 AM 46.9 °F - 39.9 °F 77% 30.04 in 10.0 mi NNW 8.1 mph - N/A   Clear
2:54 AM 45.0 °F 41.2 °F 39.0 °F 80% 30.05 in 10.0 mi NW 6.9 mph - N/A   Clear
3:54 AM 46.0 °F 43.1 °F 39.9 °F 79% 30.05 in 10.0 mi NNW 5.8 mph - N/A   Clear
4:54 AM 44.1 °F 41.5 °F 37.9 °F 79% 30.07 in 10.0 mi NW 4.6 mph - N/A   Clear
5:54 AM 43.0 °F 38.8 °F 37.9 °F 82% 30.08 in 10.0 mi NW 6.9 mph - N/A   Clear
6:54 AM 43.0 °F 38.8 °F 37.9 °F 82% 30.10 in 10.0 mi NW 6.9 mph - N/A   Clear
7:54 AM 45.0 °F 41.2 °F 39.0 °F 80% 30.10 in 10.0 mi NNW 6.9 mph - N/A   Clear
8:54 AM 51.1 °F - 42.1 °F 71% 30.12 in 10.0 mi North 4.6 mph - N/A   Clear
9:54 AM 55.9 °F - 44.1 °F 64% 30.12 in 10.0 mi Calm Calm - N/A   Clear
10:54 AM 60.1 °F - 44.1 °F 55% 30.12 in 10.0 mi ENE 6.9 mph - N/A   Clear
11:54 AM 61.0 °F - 41.0 °F 48% 30.13 in 10.0 mi SE 5.8 mph - N/A   Clear
12:54 PM 63.0 °F - 41.0 °F 45% 30.10 in 10.0 mi South 8.1 mph - N/A   Clear
1:54 PM 64.0 °F - 42.1 °F 45% 30.09 in 10.0 mi SSE 6.9 mph - N/A   Clear
2:54 PM 63.0 °F - 43.0 °F 48% 30.07 in 10.0 mi South 11.5 mph - N/A   Clear
3:54 PM 63.0 °F - 45.0 °F 52% 30.06 in 10.0 mi North - - N/A   Clear
4:54 PM 61.0 °F - 41.0 °F 48% 30.05 in 10.0 mi WSW 3.5 mph - N/A   Clear
5:54 PM 59.0 °F - 43.0 °F 55% 30.05 in 10.0 mi West 3.5 mph - N/A   Clear
6:54 PM 54.0 °F - 45.0 °F 72% 30.05 in 10.0 mi SW 3.5 mph - N/A   Clear
7:54 PM 55.0 °F - 44.1 °F 67% 30.05 in 10.0 mi Calm Calm - N/A   Clear
8:54 PM 53.1 °F - 45.0 °F 74% 30.04 in 10.0 mi Calm Calm - N/A   Clear
9:54 PM 52.0 °F - 46.0 °F 80% 30.04 in 10.0 mi Calm Calm - N/A   Clear
10:54 PM 53.1 °F - 48.0 °F 83% 30.04 in 10.0 mi Calm Calm - N/A   Clear
11:54 PM 53.1 °F - 48.9 °F 86% 30.04 in 10.0 mi SE 3.5 mph - N/A   Clear